Regional Weather Roundup
Issued by NWS

Home | Current Version | Previous Version | Graphics & Text | Print | Product List | Glossary On
Versions: 1 2 3 4 5 6 7 8 9 10 11 12 13 14 15 16 17 18 19 20 21 22 23 24 25 26 27 28 29 30 31 32 33 34 35 36 37 38 39 40 41 42 43 44 45 46 47 48 49 50
000
ASUS43 KDTX 270301
RWRMI
MICHIGAN HOURLY REGIONAL WEATHER ROUNDUP
NATIONAL WEATHER SERVICE DETROIT/PONTIAC MI
1100 PM EDT THU MAR 26 2015

NOTE: "FAIR" INDICATES FEW OR NO CLOUDS BELOW 12,000 FEET WITH NO
SIGNIFICANT WEATHER AND/OR OBSTRUCTION TO VISIBILITY.

MIZ047>049-052>055-059>063-066>070-074>076-081>083-270400-
SOUTHEAST LOWER MICHIGAN

CITY           SKY/WX    TMP DP  RH WIND       PRES   REMARKS
ADRIAN         CLOUDY    35  21  56 NW14G22   29.95S WCI  26
ALMA           CLOUDY    29  17  62 NW13G18   29.98R WCI  19
ANN ARBOR      CLOUDY    35  24  64 NW12      29.92F WCI  27
BAD AXE        FLURRIES  28  23  79 NW12      29.92S WCI  18
CARO           CLOUDY    28  19  70 NW14G25   29.94S WCI  17
DETROIT CITY   CLOUDY    38  23  55 NW9       29.92S WCI  31
DETROIT        CLOUDY    37  24  59 W10       29.93S WCI  30
FLINT          CLOUDY    33  23  66 N13       29.94R WCI  24
GROSSE ILE     CLOUDY    37  27  65 NW9       29.91S WCI  31
HILLSDALE      CLOUDY    33  20  57 NW15G21   29.94S WCI  23
HOWELL         CLOUDY    33  25  72 NW10G16   29.93S WCI  25

CITY           SKY/WX    TMP DP  RH WIND       PRES   REMARKS
JACKSON        FLURRIES  33  23  66 NW12      29.94S WCI  24
LAMBERTVILLE   CLOUDY    36  27  69 NW7       29.95R WCI  30
LANSING        CLOUDY    31  21  66 N13       29.97R WCI  21
LAPEER         CLOUDY    30  25  80 NW8       29.92S WCI  23
MASON          CLOUDY    32  22  67 NW12      29.95R WCI  23
MONROE         CLOUDY    36  27  69 NW7       29.92S WCI  30
MT. CLEMENS    CLOUDY    36  25  63 W9        29.88F WCI  29
PONTIAC        FLURRIES  33  24  69 NW16      29.90S WCI  23
PORT HOPE        N/A     30  22  72 NW14G21   29.90R WCI  19
PORT HURON     CLOUDY    34  27  75 NW8G16    29.91S WCI  27
TRI CITIES     CLOUDY    29  18  63 NW15      29.97R WCI  18
TROY           CLOUDY    36  25  64 NW10G17   29.93S WCI  28
SAGINAW HB     CLOUDY    30  21  69 NW15      29.96R WCI  19
$$
MIZ043>046-050>051-056>058-064>065-071>073-077>080-270400-
SOUTHWEST LOWER MICHIGAN

CITY           SKY/WX    TMP DP  RH WIND       PRES   REMARKS
BATTLE CREEK   CLOUDY    32  24  72 NW10      29.98R WCI  24
BENTON HARBOR  CLOUDY    31  27  85 VRB3      30.03S
BIG RAPIDS     MOCLDY    24  16  71 NW12G17   30.00R WCI  12
COLDWATER      CLOUDY    32  23  68 NW9       29.97S WCI  25
FREMONT        CLOUDY    26  15  64 N17G26    30.02S WCI  12
HOLLAND        FLURRIES  31  23  72 N7        30.03R WCI  24
GRAND RAPIDS   FLURRIES  30  20  66 NW13      30.00R WCI  20
IONIA          CLOUDY    31  21  66 N10       29.98R WCI  22
KALAMAZOO      CLOUDY    32  23  69 NW13      29.99S WCI  22
LUDINGTON      CLOUDY    24  15  68 N15       30.07S WCI  12
MOUNT PLEASANT CLOUDY    25  15  65 NW13G22   29.98R WCI  14
MUSKEGON       FLURRIES  28  17  63 N15       30.05R WCI  16
SOUTH HAVEN    CLOUDY    32  26  80 N5        30.02S WCI  27
$$
MIZ016>042-270400-
NORTHERN LOWER MICHIGAN

CITY           SKY/WX    TMP DP  RH WIND       PRES   REMARKS
ALPENA         LGT SNOW  23  15  71 NW10G20   29.94S WCI  12
BEAVER ISLAND  CLOUDY    19  12  74 NW8G23    30.06S WCI   9
BELLAIRE       FLURRIES  20  13  75 NW10G18   30.06R WCI   9
CADILLAC       FLURRIES  19  12  76 NW15G26   29.98R WCI   4
CHARLEVOIX     CLOUDY    20  14  79 NW14G24   30.08R WCI   6
FRANKFORT      CLOUDY    25  11  55 N16       30.08S WCI  12
GAYLORD        LGT SNOW  16  12  84 NW10G21   29.96R FOG     WCI   4
GRAYLING       FLURRIES  19  13  77 NW10G20   29.98R WCI   7
HARBOR SPRINGS LGT SNOW  19  14  79 W10G20    30.02S WCI   7
HOUGHTON LAKE  CLOUDY    19  11  70 NW15G22   29.97S WCI   5
MANISTEE       CLOUDY    23  12  63 N10G18    30.08R WCI  12
OSCODA         CLOUDY    26  17  66 NW13G20   29.93R WCI  15
PELLSTON       LGT SNOW  19  15  84 NW15      30.01S FOG     WCI   5
ROGERS CITY    LGT SNOW  22  19  91 NW13      29.97R WCI  10
TRAVERSE CITY  LGT SNOW  21  15  78 N13G18    30.06R WCI   9
$$
MIZ007>008-015-270400-
EASTERN UPPER MICHIGAN

CITY           SKY/WX    TMP DP  RH WIND       PRES   REMARKS
KINROSS        CLOUDY    18  18 100 NW14      29.99R WCI   4
MACKINAC ISLAN LGT SNOW  20  15  81 N16G24    30.00R WCI   6
NEWBERRY       CLOUDY    16  11  81 N13G18    30.04R WCI   3
S. S. MARIE    CLOUDY    19   8  62 N15G22    30.00R WCI   5
$$
MIZ004>006-011>014-085-270400-
CENTRAL UPPER MICHIGAN

CITY           SKY/WX    TMP DP  RH WIND       PRES   REMARKS
MANISTIQUE     MOCLDY    18   8  63 NW9G20    30.08S WCI   7
ESCANABA       CLOUDY    19   7  58 NW8       30.12S WCI   9
MENOMINEE      PTCLDY    21   5  49 N13       30.13R WCI   9
SAWYER-GWINN   CLOUDY    17   7  65 N18G24    30.08S HAZE    WCI   0
$$
MIZ001>003-009>011-084-270400-
WESTERN UPPER MICHIGAN

CITY           SKY/WX    TMP DP  RH WIND       PRES   REMARKS
IRON MOUNTAIN  PTCLDY    14   3  61 NW6       30.10R WCI   5
HOUGHTON       CLOUDY    15   4  61 N8        30.13R WCI   4
COPPER HARBOR    N/A     16   5  62 NE13      30.15S WCI   2
IRONWOOD       CLOUDY    21   7  53 N8        30.12R WCI  12
$$

ABBREVIATIONS USED IN REMARKS
   TC - TEMPERATURE IN CELSIUS
  WCI - WIND CHILL INDEX
   HX - HEAT INDEX
  VSB - VISIBILITY



USA.gov is the U.S. government's official web portal to all federal, state and local government web resources and services.